W0AKY-13 Weather Reports


time (UTC)temp
C
wind
direction
speed
KPH
gust
KPH
rain 1hr
cm
rain 24hr
cm
rain mn
cm
humidity
%
barometer
mb
20260906182627 32 120 3.2 3.2 0.00 0.00 0.00 60 1016.7
20260906182123 32 165 1.6 3.2 0.00 0.00 0.00 65 1016.8
20260906181618 32 124 4.8 4.8 0.00 0.00 0.00 64 1016.7
20260906181114 32 11 0.0 1.6 0.00 0.00 0.00 64 1016.8
20260906180609 32 101 1.6 1.6 0.00 0.00 0.00 64 1016.9
20260906180109 32 241 0.0 1.6 0.00 0.00 0.00 65 1017.0
20260906175607 32 135 1.6 1.6 0.00 0.00 0.00 63 1017.0
20260906175103 32 73 1.6 1.6 0.00 0.00 0.00 64 1017.3
20260906174600 32 88 0.0 0.0 0.00 0.00 0.00 64 1017.0
20260906174055 32 347 1.6 3.2 0.00 0.00 0.00 64 1017.2
20260906173550 32 142 3.2 4.8 0.00 0.00 0.00 66 1017.1
20260906173047 32 145 1.6 3.2 0.00 0.00 0.00 67 1017.3
20260906172546 31 90 1.6 1.6 0.00 0.00 0.00 68 1017.6
20260906172042 31 67 0.0 0.0 0.00 0.00 0.00 69 1017.6
20260906171542 31 67 1.6 1.6 0.00 0.00 0.00 68 1017.6
20260906171037 31 66 3.2 3.2 0.00 0.00 0.00 68 1017.7
20260906170533 31 345 4.8 4.8 0.00 0.00 0.00 69 1017.7
20260906170032 31 107 4.8 4.8 0.00 0.00 0.00 67 1017.5
20260906165529 32 339 1.6 1.6 0.00 0.00 0.00 68 1017.7
20260906165024 32 78 1.6 3.2 0.00 0.00 0.00 67 1017.6
20260906164523 31 256 1.6 3.2 0.00 0.00 0.00 71 1017.8
20260906164019 31 51 0.0 1.6 0.00 0.00 0.00 72 1018.1
20260906163514 30 82 0.0 1.6 0.00 0.00 0.00 73 1018.4
20260906163010 30 60 0.0 0.0 0.00 0.00 0.00 75 1018.4
20260906162507 30 57 0.0 0.0 0.00 0.00 0.00 75 1018.3
20260906162002 30 66 0.0 0.0 0.00 0.00 0.00 77 1018.3
20260906161456 30 70 1.6 1.6 0.00 0.00 0.00 75 1018.3
20260906160955 29 359 0.0 1.6 0.00 0.00 0.00 75 1018.3
20260906160454 29 62 0.0 1.6 0.00 0.00 0.00 75 1017.9
20260906155952 29 90 1.6 1.6 0.00 0.00 0.00 75 1018.1
20260906155451 30 171 1.6 3.2 0.00 0.00 0.00 75 1017.7
20260906154948 30 94 6.4 9.7 0.00 0.00 0.00 73 1017.6
20260906154443 30 92 3.2 3.2 0.00 0.00 0.00 76 1017.8
20260906153941 29 90 1.6 1.6 0.00 0.00 0.00 78 1017.8
20260906153440 28 96 0.0 0.0 0.00 0.00 0.00 79 1017.7
20260906152936 28 167 3.2 3.2 0.00 0.00 0.00 79 1017.7
20260906152435 28 77 1.6 1.6 0.00 0.00 0.00 81 1017.8
20260906151935 28 164 3.2 4.8 0.00 0.00 0.00 81 1017.7
20260906151430 28 119 1.6 1.6 0.00 0.00 0.00 80 1017.7
20260906150926 28 90 1.6 1.6 0.00 0.00 0.00 81 1017.5
20260906150421 28 136 3.2 3.2 0.00 0.00 0.00 81 1017.8
20260906145921 28 86 1.6 3.2 0.00 0.00 0.00 80 1017.5
20260906145419 28 146 3.2 4.8 0.00 0.00 0.00 80 1017.6
20260906144914 28 179 1.6 3.2 0.00 0.00 0.00 80 1017.6
20260906144409 28 127 1.6 3.2 0.00 0.00 0.00 82 1017.5
20260906143904 27 218 3.2 3.2 0.00 0.00 0.00 84 1017.6
20260906143400 27 94 1.6 3.2 0.00 0.00 0.00 84 1017.6
20260906142856 27 255 1.6 1.6 0.00 0.00 0.00 85 1017.7
20260906142355 27 150 1.6 1.6 0.00 0.00 0.00 85 1017.7
20260906141851 27 109 1.6 3.2 0.00 0.00 0.00 86 1017.9
20260906141350 26 135 1.6 3.2 0.00 0.00 0.00 85 1017.7
20260906140850 26 100 1.6 3.2 0.00 0.00 0.00 86 1017.8
20260906140345 26 215 3.2 3.2 0.00 0.00 0.00 87 1017.6
20260906135842 26 158 3.2 3.2 0.00 0.00 0.00 87 1017.9
20260906135337 26 37 1.6 1.6 0.00 0.00 0.00 87 1017.6
20260906134832 26 72 1.6 1.6 0.00 0.00 0.00 88 1018.1
20260906134327 26 189 1.6 3.2 0.00 0.00 0.00 88 1017.8
20260906133823 25 144 3.2 3.2 0.00 0.00 0.00 89 1018.1
20260906133319 25 233 1.6 3.2 0.00 0.00 0.00 91 1018.1
20260906132814 25 77 1.6 1.6 0.00 0.00 0.00 92 1018.1
20260906132309 24 227 3.2 4.8 0.00 0.00 0.00 94 1017.5
20260906131804 24 103 0.0 1.6 0.00 0.00 0.00 96 1017.5
20260906131259 23 149 1.6 1.6 0.00 0.00 0.00 97 1017.6
20260906130755 23 82 1.6 3.2 0.00 0.00 0.00 98 1017.7
20260906130250 23 81 1.6 1.6 0.00 0.00 0.00 99 1017.5
20260906125749 23 79 1.6 1.6 0.00 0.00 0.00 99 1017.4
20260906125246 23 61 0.0 0.0 0.00 0.00 0.00 99 1017.2
20260906124741 23 61 0.0 0.0 0.00 0.00 0.00 99 1017.2
20260906124237 22 61 0.0 0.0 0.00 0.00 0.00 99 1017.3
20260906123736 22 61 0.0 0.0 0.00 0.00 0.00 99 1017.0
20260906123231 22 61 0.0 0.0 0.00 0.00 0.00 99 1017.1
20260906122730 22 61 0.0 0.0 0.00 0.00 0.00 99 1017.2
20260906122226 22 61 0.0 0.0 0.00 0.00 0.00 99 1017.0
20260906121722 22 61 0.0 0.0 0.00 0.00 0.00 99 1016.9
20260906121218 22 61 0.0 0.0 0.00 0.00 0.00 99 1017.1
20260906120714 22 61 0.0 0.0 0.00 0.00 0.00 99 1016.9
20260906120211 22 61 0.0 0.0 0.00 0.00 0.00 99 1016.9
20260906115706 22 61 0.0 0.0 0.00 0.00 0.00 99 1016.8
20260906115201 22 61 0.0 0.0 0.00 0.00 0.00 99 1016.6
20260906114700 22 61 0.0 1.6 0.00 0.00 0.00 99 1016.7
20260906114156 22 61 0.0 0.0 0.00 0.00 0.00 99 1016.6
20260906113656 22 61 0.0 0.0 0.00 0.00 0.00 99 1016.6
20260906113155 21 61 0.0 0.0 0.00 0.00 0.00 99 1016.4
20260906112654 21 61 0.0 0.0 0.00 0.00 0.00 99 1016.6
20260906112152 21 61 0.0 0.0 0.00 0.00 0.00 99 1016.5
20260906111651 21 61 0.0 0.0 0.00 0.00 0.00 99 1016.6
20260906111146 21 61 0.0 0.0 0.00 0.00 0.00 99 1016.6
20260906110641 21 61 0.0 0.0 0.00 0.00 0.00 99 1016.6
20260906110136 21 61 0.0 0.0 0.00 0.00 0.00 99 1016.6
20260906105630 21 61 0.0 0.0 0.00 0.00 0.00 98 1016.6
20260906105127 22 61 0.0 0.0 0.00 0.00 0.00 99 1016.5
20260906104626 22 61 0.0 0.0 0.00 0.00 0.00 99 1016.4
20260906104125 22 61 0.0 0.0 0.00 0.00 0.00 99 1016.4
20260906103623 22 61 0.0 0.0 0.00 0.00 0.00 99 1016.5
20260906103119 22 61 0.0 0.0 0.00 0.00 0.00 99 1016.5
20260906102614 22 61 0.0 0.0 0.00 0.00 0.00 99 1016.3
20260906102109 22 61 0.0 0.0 0.00 0.00 0.00 99 1016.0
20260906101609 22 61 0.0 0.0 0.00 0.00 0.00 98 1016.2
20260906101109 22 61 0.0 0.0 0.00 0.00 0.00 98 1016.3
20260906100604 22 61 0.0 0.0 0.00 0.00 0.00 98 1016.3
20260906100105 22 61 0.0 0.0 0.00 0.00 0.00 98 1016.3
20260906095604 22 61 0.0 0.0 0.00 0.00 0.00 98 1016.3
20260906095100 22 61 0.0 0.0 0.00 0.00 0.00 98 1016.1
20260906094558 22 61 0.0 0.0 0.00 0.00 0.00 98 1016.1
20260906094055 22 61 0.0 0.0 0.00 0.00 0.00 98 1016.3
20260906093550 22 61 0.0 0.0 0.00 0.00 0.00 98 1016.2
20260906093045 22 61 0.0 0.0 0.00 0.00 0.00 98 1016.5
20260906092540 22 61 0.0 0.0 0.00 0.00 0.00 99 1016.1
20260906092035 22 61 0.0 0.0 0.00 0.00 0.00 98 1016.2
20260906091531 22 61 0.0 0.0 0.00 0.00 0.00 98 1016.1
20260906091027 22 61 0.0 0.0 0.00 0.00 0.00 98 1016.1
20260906090522 22 61 0.0 0.0 0.00 0.00 0.00 98 1016.0
20260906090017 22 61 0.0 0.0 0.00 0.00 0.00 98 1016.1
20260906085515 22 61 0.0 0.0 0.00 0.00 0.00 98 1016.2
20260906085015 22 61 0.0 0.0 0.00 0.00 0.00 98 1016.0
20260906084510 22 61 0.0 0.0 0.00 0.00 0.00 98 1016.1
20260906084009 22 61 0.0 0.0 0.00 0.00 0.00 98 1016.0
20260906083505 22 61 0.0 0.0 0.00 0.00 0.00 98 1016.0
20260906083004 22 61 0.0 0.0 0.00 0.00 0.00 98 1016.3
20260906082459 22 61 0.0 0.0 0.00 0.00 0.00 98 1016.1
20260906081955 22 62 0.0 0.0 0.00 0.00 0.00 98 1016.0
20260906081450 22 61 0.0 0.0 0.00 0.00 0.00 98 1015.9
20260906080946 22 61 0.0 0.0 0.00 0.00 0.00 98 1016.2
20260906080442 22 61 0.0 0.0 0.00 0.00 0.00 98 1015.8
20260906075943 22 61 0.0 1.6 0.00 0.00 0.00 98 1015.8
20260906075437 22 61 0.0 0.0 0.00 0.00 0.00 98 1016.0
20260906074933 22 61 0.0 0.0 0.00 0.00 0.00 98 1015.9
20260906074433 23 61 0.0 0.0 0.00 0.00 0.00 98 1016.0
20260906073931 23 61 0.0 0.0 0.00 0.00 0.00 98 1016.0
20260906073426 23 61 0.0 0.0 0.00 0.00 0.00 98 1016.1
20260906072923 23 61 0.0 0.0 0.00 0.00 0.00 98 1015.9
20260906072418 22 61 0.0 0.0 0.00 0.00 0.00 98 1015.8
20260906071914 23 61 0.0 0.0 0.00 0.00 0.00 98 1016.0
20260906071409 23 61 0.0 0.0 0.00 0.00 0.00 98 1015.9
20260906070905 23 61 0.0 0.0 0.00 0.00 0.00 98 1016.3
20260906070401 23 61 0.0 0.0 0.00 0.00 0.00 97 1016.3
20260906065856 23 61 0.0 0.0 0.00 0.00 0.00 97 1016.3
20260906065350 23 61 0.0 0.0 0.00 0.00 0.00 97 1016.0
20260906064846 23 61 0.0 0.0 0.00 0.00 0.00 97 1016.2
20260906064343 23 61 0.0 0.0 0.00 0.00 0.00 97 1016.3
20260906063842 23 61 0.0 0.0 0.00 0.00 0.00 97 1016.1
20260906063338 23 61 0.0 0.0 0.00 0.00 0.00 97 1016.4
20260906062833 23 61 0.0 0.0 0.00 0.00 0.00 97 1016.4
20260906062332 23 61 0.0 0.0 0.00 0.00 0.00 97 1016.3
20260906061827 23 61 0.0 0.0 0.00 0.00 0.00 97 1016.3
20260906061324 23 61 0.0 0.0 0.00 0.00 0.00 97 1016.4
20260906060818 23 61 0.0 0.0 0.00 0.00 0.00 97 1016.5
20260906060316 23 61 0.0 0.0 0.00 0.00 0.00 96 1016.4
20260906055812 23 61 0.0 0.0 0.00 0.00 0.00 96 1016.3
20260906055307 23 61 0.0 0.0 0.00 0.00 0.00 96 1016.4
20260906054802 23 61 0.0 0.0 0.00 0.00 0.00 96 1016.6
20260906054258 23 61 0.0 0.0 0.00 0.00 0.00 96 1016.3
20260906053754 23 61 0.0 0.0 0.00 0.00 0.00 96 1016.7
20260906053250 23 60 0.0 0.0 0.00 0.00 0.00 96 1016.4
20260906052744 23 60 0.0 0.0 0.00 0.00 0.00 95 1016.7
20260906052241 23 61 0.0 0.0 0.00 0.00 0.00 95 1016.6
20260906051738 24 61 0.0 0.0 0.00 0.00 0.00 95 1016.4
20260906051237 24 61 0.0 0.0 0.00 0.00 0.00 95 1016.5
20260906050732 24 61 0.0 0.0 0.00 0.00 0.00 95 1016.4
20260906034606 25 66 0.0 1.6 0.00 0.00 0.00 93 1015.8
20260906034100 25 66 0.0 1.6 0.00 0.00 0.00 93 1015.8
20260906033556 25 66 0.0 0.0 0.00 0.00 0.00 93 1015.7
20260906033051 25 66 0.0 1.6 0.00 0.00 0.00 92 1015.7
20260906032548 25 65 0.0 0.0 0.00 0.00 0.00 92 1015.8
20260906032048 25 64 0.0 0.0 0.00 0.00 0.00 92 1015.7
20260906031543 25 64 0.0 0.0 0.00 0.00 0.00 91 1015.9
20260906031039 25 64 0.0 0.0 0.00 0.00 0.00 91 1015.5
20260906030538 25 65 0.0 1.6 0.00 0.00 0.00 90 1015.4
20260906030038 26 64 0.0 0.0 0.00 0.00 0.00 89 1015.4
20260906025538 26 64 0.0 0.0 0.00 0.00 0.00 89 1015.4
20260906025036 26 64 0.0 0.0 0.00 0.00 0.00 88 1015.4
20260906024532 26 64 0.0 0.0 0.00 0.00 0.00 88 1015.4
20260906024031 26 64 0.0 0.0 0.00 0.00 0.00 87 1015.2
20260906023527 26 64 0.0 0.0 0.00 0.00 0.00 87 1015.2
20260906023022 26 64 0.0 1.6 0.00 0.00 0.00 87 1015.1
20260906022518 26 64 1.6 1.6 0.00 0.00 0.00 86 1015.2
20260906022013 26 64 0.0 0.0 0.00 0.00 0.00 86 1015.0
20260906021508 27 64 0.0 0.0 0.00 0.00 0.00 85 1014.9
20260906021003 27 64 0.0 0.0 0.00 0.00 0.00 84 1014.8
20260906020501 27 64 0.0 0.0 0.00 0.00 0.00 83 1014.5
20260906020001 27 64 0.0 0.0 0.00 0.00 0.00 83 1014.4
20260906015501 27 64 0.0 1.6 0.00 0.00 0.00 83 1014.4
20260906015001 27 64 0.0 0.0 0.00 0.00 0.00 82 1014.4
20260906014455 28 64 0.0 0.0 0.00 0.00 0.00 81 1014.3
20260906013951 27 64 0.0 0.0 0.00 0.00 0.00 80 1014.3
20260906013446 27 64 0.0 0.0 0.00 0.00 0.00 81 1014.1
20260906012943 27 72 1.6 1.6 0.00 0.00 0.00 82 1014.1
20260906012443 27 73 1.6 1.6 0.00 0.00 0.00 81 1013.8
20260906011942 28 73 1.6 1.6 0.00 0.00 0.00 79 1014.1
20260906011437 28 68 1.6 1.6 0.00 0.00 0.00 77 1014.1
20260906010933 28 47 0.0 0.0 0.00 0.00 0.00 76 1014.1
20260906010428 29 65 0.0 0.0 0.00 0.00 0.00 74 1014.0
20260906005924 30 65 0.0 1.6 0.00 0.00 0.00 73 1014.1
20260906005423 30 68 0.0 0.0 0.00 0.00 0.00 71 1014.0
20260906004922 30 68 0.0 0.0 0.00 0.00 0.00 70 1014.0
20260906004416 31 68 0.0 1.6 0.00 0.00 0.00 68 1014.0
20260906003912 31 67 1.6 1.6 0.00 0.00 0.00 67 1014.0
20260906003408 31 66 0.0 0.0 0.00 0.00 0.00 64 1014.3
20260906002903 31 66 0.0 0.0 0.00 0.00 0.00 62 1014.2
20260906002402 32 102 1.6 1.6 0.00 0.00 0.00 62 1013.8
20260906001858 32 101 1.6 1.6 0.00 0.00 0.00 61 1014.0
20260906001354 32 92 0.0 1.6 0.00 0.00 0.00 60 1014.2
20260906000853 32 82 0.0 1.6 0.00 0.00 0.00 59 1013.9
20260906000355 32 66 0.0 1.6 0.00 0.00 0.00 58 1013.9
20260905235849 32 159 1.6 1.6 0.00 0.00 0.00 57 1013.9
20260905235343 33 72 0.0 0.0 0.00 0.00 0.00 58 1014.0
20260905234838 33 150 1.6 3.2 0.00 0.00 0.00 56 1014.1
20260905234334 33 121 1.6 1.6 0.00 0.00 0.00 56 1014.0
20260905233829 33 98 0.0 1.6 0.00 0.00 0.00 55 1014.0
20260905233324 34 111 1.6 1.6 0.00 0.00 0.00 54 1014.0
20260905232822 34 198 1.6 1.6 0.00 0.00 0.00 52 1014.0
20260905232319 35 181 3.2 3.2 0.00 0.00 0.00 50 1014.0
20260905231815 35 76 0.0 1.6 0.00 0.00 0.00 51 1013.8
20260905231309 35 159 1.6 1.6 0.00 0.00 0.00 52 1013.8
20260905230806 35 193 3.2 3.2 0.00 0.00 0.00 47 1013.8
20260905230303 36 173 3.2 3.2 0.00 0.00 0.00 49 1013.9
20260905225803 36 178 3.2 3.2 0.00 0.00 0.00 47 1013.8
20260905225258 36 65 3.2 3.2 0.00 0.00 0.00 45 1013.9
20260905224758 37 187 3.2 3.2 0.00 0.00 0.00 46 1013.9
20260905224254 37 226 3.2 3.2 0.00 0.00 0.00 45 1014.0
20260905223749 37 25 3.2 3.2 0.00 0.00 0.00 45 1013.8
20260905223246 37 148 4.8 8.0 0.00 0.00 0.00 47 1013.9
20260905222741 36 100 1.6 1.6 0.00 0.00 0.00 49 1013.7
20260905222240 36 351 0.0 1.6 0.00 0.00 0.00 60 1013.7
20260905221736 36 26 0.0 1.6 0.00 0.00 0.00 59 1013.6
20260905221233 36 246 3.2 3.2 0.00 0.00 0.00 58 1013.8
20260905220729 36 350 1.6 1.6 0.00 0.00 0.00 59 1013.9
20260905220225 36 35 1.6 1.6 0.00 0.00 0.00 58 1013.6
20260905215724 37 30 1.6 3.2 0.00 0.00 0.00 56 1013.6
20260905215220 36 53 0.0 1.6 0.00 0.00 0.00 57 1013.6
20260905214715 36 20 0.0 0.0 0.00 0.00 0.00 61 1013.8
20260905214211 36 6 3.2 3.2 0.00 0.00 0.00 59 1013.9
20260905213706 36 46 0.0 0.0 0.00 0.00 0.00 57 1013.8
20260905213202 36 240 1.6 3.2 0.00 0.00 0.00 57 1014.2
20260905212657 35 322 4.8 4.8 0.00 0.00 0.00 58 1014.2
20260905212156 36 22 3.2 3.2 0.00 0.00 0.00 58 1014.2
20260905211650 36 17 3.2 3.2 0.00 0.00 0.00 57 1014.3
20260905211146 35 10 0.0 1.6 0.00 0.00 0.00 61 1014.6
20260905210643 36 336 4.8 4.8 0.00 0.00 0.00 58 1014.8
20260905210143 36 30 1.6 1.6 0.00 0.00 0.00 60 1014.8
20260905205642 35 29 1.6 1.6 0.00 0.00 0.00 59 1014.9
20260905205142 36 45 1.6 1.6 0.00 0.00 0.00 60 1015.0
20260905204641 36 37 0.0 1.6 0.00 0.00 0.00 59 1014.9
20260905204136 36 25 4.8 4.8 0.00 0.00 0.00 59 1015.1
20260905203631 35 39 0.0 0.0 0.00 0.00 0.00 60 1015.0
20260905203126 36 44 0.0 1.6 0.00 0.00 0.00 57 1015.2
20260905202622 36 248 3.2 4.8 0.00 0.00 0.00 58 1015.2
20260905202117 35 33 0.0 1.6 0.00 0.00 0.00 60 1015.2
20260905201612 35 183 3.2 3.2 0.00 0.00 0.00 61 1015.5
20260905201111 35 18 1.6 3.2 0.00 0.00 0.00 58 1015.4
20260905200607 35 25 3.2 3.2 0.00 0.00 0.00 59 1015.1
20260905195556 35 154 4.8 8.0 0.00 0.00 0.00 60 1015.6
20260905195051 35 44 1.6 3.2 0.00 0.00 0.00 60 1015.7
20260905194550 34 28 3.2 3.2 0.00 0.00 0.00 61 1015.7
20260905194050 33 40 0.0 1.6 0.00 0.00 0.00 62 1015.8
20260905193545 34 259 0.0 1.6 0.00 0.00 0.00 63 1015.9
20260905193041 34 42 0.0 1.6 0.00 0.00 0.00 63 1015.9
20260905192536 34 36 0.0 1.6 0.00 0.00 0.00 61 1016.2
20260905192032 35 36 0.0 1.6 0.00 0.00 0.00 58 1016.3
20260905191530 37 34 1.6 1.6 0.00 0.00 0.00 53 1016.4
20260905191030 37 30 1.6 3.2 0.00 0.00 0.00 49 1016.3
20260905190528 36 40 0.0 1.6 0.00 0.00 0.00 53 1016.4
20260905190022 36 132 1.6 3.2 0.00 0.00 0.00 57 1016.5
20260905185521 37 13 1.6 1.6 0.00 0.00 0.00 54 1016.3
20260905185021 37 52 1.6 3.2 0.00 0.00 0.00 51 1016.6
20260905184521 37 229 3.2 3.2 0.00 0.00 0.00 52 1016.4
20260905184019 36 41 0.0 0.0 0.00 0.00 0.00 54 1016.6
20260905183514 36 106 1.6 3.2 0.00 0.00 0.00 51 1016.5
20260905183009 36 219 4.8 4.8 0.00 0.00 0.00 55 1017.0